owner,sensor,date,latitude,longitude,vertical_datum,direction_of_sea_water_velocity,sea_water_speed,upward_sea_water_velocity,qcFlag 
TABS,ioos:station:wmo:42043:1,1997-01-01T00:00:00Z,28.9818,-94.9186,2.0,122.6736895,37.52859843,-99999.0,'11111222,11111222,99999999' 
TABS,ioos:station:wmo:42043:1,1997-01-01T00:30:00Z,28.9818,-94.9186,2.0,144.2493627,27.53925562,-99999.0,'11111222,11111222,99999999' 
TABS,ioos:station:wmo:42043:1,1997-01-01T01:00:00Z,28.9818,-94.9186,2.0,156.5043352,14.94943812,-99999.0,'11111222,11111222,99999999' 
TABS,ioos:station:wmo:42043:1,1997-01-01T01:30:00Z,28.9818,-94.9186,2.0,177.9396833,8.345393939,-99999.0,'11133222,11111222,99999999' 
TABS,ioos:station:wmo:42043:1,1997-01-01T02:00:00Z,28.9818,-94.9186,2.0,158.0659558,1.606268969,-99999.0,'11133222,11111222,99999999' 
TABS,ioos:station:wmo:42043:1,1997-01-01T02:30:00Z,28.9818,-94.9186,2.0,241.6283067,4.398295124,-99999.0,'11133222,11111222,99999999' 
TABS,ioos:station:wmo:42043:1,1997-01-01T03:00:00Z,28.9818,-94.9186,2.0,248.2313778,3.208815981,-99999.0,'11133222,11111222,99999999' 
TABS,ioos:station:wmo:42043:1,1997-01-01T03:30:00Z,28.9818,-94.9186,2.0,165.8503465,1.227232659,-99999.0,'11133222,11111222,99999999' 
TABS,ioos:station:wmo:42043:1,1997-01-01T04:00:00Z,28.9818,-94.9186,2.0,108.4349057,4.711793714,-99999.0,'11133222,11111222,99999999' 
TABS,ioos:station:wmo:42043:1,1997-01-01T04:30:00Z,28.9818,-94.9186,2.0,127.3526285,14.24050561,-99999.0,'11111222,11111222,99999999' 
TABS,ioos:station:wmo:42043:1,1997-01-01T05:00:00Z,28.9818,-94.9186,2.0,87.98767645,25.34563079,-99999.0,'11111222,11111222,99999999' 
TABS,ioos:station:wmo:42043:1,1997-01-01T05:30:00Z,28.9818,-94.9186,2.0,75.3791602,35.41689569,-99999.0,'11111222,11111222,99999999' 
TABS,ioos:station:wmo:42043:1,1997-01-01T06:00:00Z,28.9818,-94.9186,2.0,66.3760804,36.43328698,-99999.0,'11111222,11111222,99999999' 
TABS,ioos:station:wmo:42043:1,1997-01-01T06:30:00Z,28.9818,-94.9186,2.0,64.22934218,38.38803199,-99999.0,'11111222,11111222,99999999' 
TABS,ioos:station:wmo:42043:1,1997-01-01T07:00:00Z,28.9818,-94.9186,2.0,62.8986521,42.51845952,-99999.0,'11111222,11111222,99999999' 
TABS,ioos:station:wmo:42043:1,1997-01-01T07:30:00Z,28.9818,-94.9186,2.0,61.61061467,42.00123093,-99999.0,'11111222,11111222,99999999' 
TABS,ioos:station:wmo:42043:1,1997-01-01T08:00:00Z,28.9818,-94.9186,2.0,58.07975674,42.83774154,-99999.0,'11111222,11111222,99999999' 
TABS,ioos:station:wmo:42043:1,1997-01-01T08:30:00Z,28.9818,-94.9186,2.0,60.57293202,40.03530692,-99999.0,'11111222,11111222,99999999' 
TABS,ioos:station:wmo:42043:1,1997-01-01T09:00:00Z,28.9818,-94.9186,2.0,59.6489568,38.33384014,-99999.0,'11111222,11111222,99999999' 
TABS,ioos:station:wmo:42043:1,1997-01-01T09:30:00Z,28.9818,-94.9186,2.0,57.57191847,37.78147297,-99999.0,'11111222,11111222,99999999' 
TABS,ioos:station:wmo:42043:1,1997-01-01T10:00:00Z,28.9818,-94.9186,2.0,54.75548796,39.77,-99999.0,'11111222,11111222,99999999' 
TABS,ioos:station:wmo:42043:1,1997-01-01T10:30:00Z,28.9818,-94.9186,2.0,54.62277438,36.54840079,-99999.0,'11111222,11111222,99999999' 
TABS,ioos:station:wmo:42043:1,1997-01-01T11:00:00Z,28.9818,-94.9186,2.0,52.93106481,35.104212,-99999.0,'11111222,11111222,99999999' 
TABS,ioos:station:wmo:42043:1,1997-01-01T11:30:00Z,28.9818,-94.9186,2.0,56.89256002,32.73455055,-99999.0,'11111222,11111222,99999999' 
TABS,ioos:station:wmo:42043:1,1997-01-01T12:00:00Z,28.9818,-94.9186,2.0,57.99076337,30.92119823,-99999.0,'11111222,11111222,99999999' 
TABS,ioos:station:wmo:42043:1,1997-01-01T12:30:00Z,28.9818,-94.9186,2.0,55.41192322,31.49697287,-99999.0,'11111222,11111222,99999999' 
TABS,ioos:station:wmo:42043:1,1997-01-01T13:00:00Z,28.9818,-94.9186,2.0,51.9225993,36.72615689,-99999.0,'11111222,11111222,99999999' 
TABS,ioos:station:wmo:42043:1,1997-01-01T13:30:00Z,28.9818,-94.9186,2.0,52.52659911,33.79387518,-99999.0,'11111222,11111222,99999999' 
TABS,ioos:station:wmo:42043:1,1997-01-01T14:00:00Z,28.9818,-94.9186,2.0,50.12561966,33.00537078,-99999.0,'11111222,11111222,99999999' 
TABS,ioos:station:wmo:42043:1,1997-01-01T14:30:00Z,28.9818,-94.9186,2.0,53.93603533,29.86295364,-99999.0,'11111222,11111222,99999999' 
TABS,ioos:station:wmo:42043:1,1997-01-01T15:00:00Z,28.9818,-94.9186,2.0,53.13385127,31.28600006,-99999.0,'11111222,11111222,99999999' 
TABS,ioos:station:wmo:42043:1,1997-01-01T15:30:00Z,28.9818,-94.9186,2.0,52.62200607,33.37331269,-99999.0,'11111222,11111222,99999999' 
TABS,ioos:station:wmo:42043:1,1997-01-01T16:00:00Z,28.9818,-94.9186,2.0,59.03631587,34.75247329,-99999.0,'11111222,11111222,99999999' 
TABS,ioos:station:wmo:42043:1,1997-01-01T16:30:00Z,28.9818,-94.9186,2.0,64.5807711,40.25727263,-99999.0,'11111222,11111222,99999999' 
TABS,ioos:station:wmo:42043:1,1997-01-01T17:00:00Z,28.9818,-94.9186,2.0,63.99425096,40.77887811,-99999.0,'11111222,11111222,99999999' 
TABS,ioos:station:wmo:42043:1,1997-01-01T17:30:00Z,28.9818,-94.9186,2.0,62.5798299,44.64583407,-99999.0,'11111222,11111222,99999999' 
TABS,ioos:station:wmo:42043:1,1997-01-01T18:00:00Z,28.9818,-94.9186,2.0,66.03615134,41.09207466,-99999.0,'11111222,11111222,99999999' 
TABS,ioos:station:wmo:42043:1,1997-01-01T18:30:00Z,28.9818,-94.9186,2.0,65.55829703,43.2126139,-99999.0,'11111222,11111222,99999999' 
TABS,ioos:station:wmo:42043:1,1997-01-01T19:00:00Z,28.9818,-94.9186,2.0,62.85628673,39.8487641,-99999.0,'11111222,11111222,99999999' 
TABS,ioos:station:wmo:42043:1,1997-01-01T19:30:00Z,28.9818,-94.9186,2.0,71.02232904,39.39109798,-99999.0,'11111222,11111222,99999999' 
TABS,ioos:station:wmo:42043:1,1997-01-01T20:00:00Z,28.9818,-94.9186,2.0,73.6315113,33.8520605,-99999.0,'11111222,11111222,99999999' 
TABS,ioos:station:wmo:42043:1,1997-01-01T20:30:00Z,28.9818,-94.9186,2.0,72.43460731,37.50893227,-99999.0,'11111222,11111222,99999999' 
TABS,ioos:station:wmo:42043:1,1997-01-01T21:00:00Z,28.9818,-94.9186,2.0,80.71352247,33.21532779,-99999.0,'11111222,11111222,99999999' 
TABS,ioos:station:wmo:42043:1,1997-01-01T21:30:00Z,28.9818,-94.9186,2.0,81.71315742,31.0138195,-99999.0,'11111222,11111222,99999999' 
TABS,ioos:station:wmo:42043:1,1997-01-01T22:00:00Z,28.9818,-94.9186,2.0,86.82017732,26.861357,-99999.0,'11111222,11111222,99999999' 
TABS,ioos:station:wmo:42043:1,1997-01-01T22:30:00Z,28.9818,-94.9186,2.0,83.29017888,25.50469173,-99999.0,'11111222,11111222,99999999' 
TABS,ioos:station:wmo:42043:1,1997-01-01T23:00:00Z,28.9818,-94.9186,2.0,85.3589659,22.12253602,-99999.0,'11111222,11111222,99999999' 
TABS,ioos:station:wmo:42043:1,1997-01-01T23:30:00Z,28.9818,-94.9186,2.0,82.3565178,20.14902727,-99999.0,'11111222,11111222,99999999' 
TABS,ioos:station:wmo:42043:1,1997-01-02T00:00:00Z,28.9818,-94.9186,2.0,73.94697907,20.46813377,-99999.0,'11111222,11111222,99999999' 
TABS,ioos:station:wmo:42043:1,1997-01-02T00:30:00Z,28.9818,-94.9186,2.0,72.81137376,17.1562525,-99999.0,'11111222,11111222,99999999' 
TABS,ioos:station:wmo:42043:1,1997-01-02T01:00:00Z,28.9818,-94.9186,2.0,81.184107,17.48658915,-99999.0,'11111222,11111222,99999999' 
TABS,ioos:station:wmo:42043:1,1997-01-02T01:30:00Z,28.9818,-94.9186,2.0,58.57771035,18.85515845,-99999.0,'11111222,11111222,99999999' 
TABS,ioos:station:wmo:42043:1,1997-01-02T02:00:00Z,28.9818,-94.9186,2.0,54.64759915,22.65794563,-99999.0,'11111222,11111222,99999999' 
TABS,ioos:station:wmo:42043:1,1997-01-02T02:30:00Z,28.9818,-94.9186,2.0,49.77533711,20.30079062,-99999.0,'11111222,11111222,99999999' 
TABS,ioos:station:wmo:42043:1,1997-01-02T03:00:00Z,28.9818,-94.9186,2.0,37.73668014,19.96628408,-99999.0,'11111222,11111222,99999999' 
TABS,ioos:station:wmo:42043:1,1997-01-02T03:30:00Z,28.9818,-94.9186,2.0,35.92484764,21.33890344,-99999.0,'11111222,11111222,99999999' 
TABS,ioos:station:wmo:42043:1,1997-01-02T04:00:00Z,28.9818,-94.9186,2.0,33.15446333,26.69611395,-99999.0,'11111222,11111222,99999999' 
TABS,ioos:station:wmo:42043:1,1997-01-02T04:30:00Z,28.9818,-94.9186,2.0,27.89741625,28.66072225,-99999.0,'11111222,11111222,99999999' 
TABS,ioos:station:wmo:42043:1,1997-01-02T05:00:00Z,28.9818,-94.9186,2.0,23.72698948,29.62399028,-99999.0,'11111222,11111222,99999999' 
TABS,ioos:station:wmo:42043:1,1997-01-02T05:30:00Z,28.9818,-94.9186,2.0,16.45214867,32.62578275,-99999.0,'11111222,11111222,99999999' 
TABS,ioos:station:wmo:42043:1,1997-01-02T06:00:00Z,28.9818,-94.9186,2.0,17.06672593,39.59352093,-99999.0,'11111222,11111222,99999999' 
TABS,ioos:station:wmo:42043:1,1997-01-02T06:30:00Z,28.9818,-94.9186,2.0,16.11096198,41.87454239,-99999.0,'11111222,11111222,99999999' 
TABS,ioos:station:wmo:42043:1,1997-01-02T07:00:00Z,28.9818,-94.9186,2.0,13.8395409,42.34939551,-99999.0,'11111222,11111222,99999999' 
TABS,ioos:station:wmo:42043:1,1997-01-02T07:30:00Z,28.9818,-94.9186,2.0,13.35090396,42.57047451,-99999.0,'11111222,11111222,99999999' 
TABS,ioos:station:wmo:42043:1,1997-01-02T08:00:00Z,28.9818,-94.9186,2.0,13.516205,39.53493645,-99999.0,'11111222,11111222,99999999' 
TABS,ioos:station:wmo:42043:1,1997-01-02T08:30:00Z,28.9818,-94.9186,2.0,11.73893834,39.56753846,-99999.0,'11111222,11111222,99999999' 
TABS,ioos:station:wmo:42043:1,1997-01-02T09:00:00Z,28.9818,-94.9186,2.0,8.386036865,36.75294818,-99999.0,'11111222,11111222,99999999' 
TABS,ioos:station:wmo:42043:1,1997-01-02T09:30:00Z,28.9818,-94.9186,2.0,7.130429755,40.84587862,-99999.0,'11111222,11111222,99999999' 
TABS,ioos:station:wmo:42043:1,1997-01-02T10:00:00Z,28.9818,-94.9186,2.0,8.247303126,41.54968111,-99999.0,'11111222,11111222,99999999' 
TABS,ioos:station:wmo:42043:1,1997-01-02T10:30:00Z,28.9818,-94.9186,2.0,7.128907952,38.43712398,-99999.0,'11111222,11111222,99999999' 
TABS,ioos:station:wmo:42043:1,1997-01-02T11:00:00Z,28.9818,-94.9186,2.0,15.71316186,39.62060701,-99999.0,'11111222,11111222,99999999' 
TABS,ioos:station:wmo:42043:1,1997-01-02T11:30:00Z,28.9818,-94.9186,2.0,28.74660435,31.60512775,-99999.0,'11111222,11111222,99999999' 
TABS,ioos:station:wmo:42043:1,1997-01-02T12:00:00Z,28.9818,-94.9186,2.0,37.76057824,26.76523305,-99999.0,'11111222,11111222,99999999' 
TABS,ioos:station:wmo:42043:1,1997-01-02T12:30:00Z,28.9818,-94.9186,2.0,85.59564908,23.30883309,-99999.0,'11111222,11111222,99999999' 
TABS,ioos:station:wmo:42043:1,1997-01-02T13:00:00Z,28.9818,-94.9186,2.0,94.13489924,28.98544807,-99999.0,'11111222,11111222,99999999' 
TABS,ioos:station:wmo:42043:1,1997-01-02T13:30:00Z,28.9818,-94.9186,2.0,103.0348906,33.03112017,-99999.0,'11111222,11111222,99999999' 
TABS,ioos:station:wmo:42043:1,1997-01-02T14:00:00Z,28.9818,-94.9186,2.0,107.0259799,34.59629026,-99999.0,'11111222,11111222,99999999' 
TABS,ioos:station:wmo:42043:1,1997-01-02T14:30:00Z,28.9818,-94.9186,2.0,102.8042361,33.61593223,-99999.0,'11111222,11111222,99999999' 
TABS,ioos:station:wmo:42043:1,1997-01-02T15:00:00Z,28.9818,-94.9186,2.0,100.6111662,29.10776013,-99999.0,'11111222,11111222,99999999' 
TABS,ioos:station:wmo:42043:1,1997-01-02T15:30:00Z,28.9818,-94.9186,2.0,90.0,33.38,-99999.0,'11111222,11111222,99999999' 
TABS,ioos:station:wmo:42043:1,1997-01-02T16:00:00Z,28.9818,-94.9186,2.0,83.02146213,41.7291421,-99999.0,'11111222,11111222,99999999' 
TABS,ioos:station:wmo:42043:1,1997-01-02T16:30:00Z,28.9818,-94.9186,2.0,84.38172314,39.52989375,-99999.0,'11111222,11111222,99999999' 
TABS,ioos:station:wmo:42043:1,1997-01-02T17:00:00Z,28.9818,-94.9186,2.0,78.46116235,43.19296239,-99999.0,'11111222,11111222,99999999' 
TABS,ioos:station:wmo:42043:1,1997-01-02T17:30:00Z,28.9818,-94.9186,2.0,75.48704704,44.01446353,-99999.0,'11111222,11111222,99999999' 
TABS,ioos:station:wmo:42043:1,1997-01-02T18:00:00Z,28.9818,-94.9186,2.0,73.73419337,44.69920022,-99999.0,'11111222,11111222,99999999' 
TABS,ioos:station:wmo:42043:1,1997-01-02T18:30:00Z,28.9818,-94.9186,2.0,69.09507967,45.93364997,-99999.0,'11111222,11111222,99999999' 
TABS,ioos:station:wmo:42043:1,1997-01-02T19:00:00Z,28.9818,-94.9186,2.0,67.09622552,45.94210269,-99999.0,'11111222,11111222,99999999' 
TABS,ioos:station:wmo:42043:1,1997-01-02T19:30:00Z,28.9818,-94.9186,2.0,68.19627371,44.93455797,-99999.0,'11111222,11111222,99999999' 
TABS,ioos:station:wmo:42043:1,1997-01-02T20:00:00Z,28.9818,-94.9186,2.0,68.05330605,44.65615859,-99999.0,'11111222,11111222,99999999' 
TABS,ioos:station:wmo:42043:1,1997-01-02T20:30:00Z,28.9818,-94.9186,2.0,68.12631622,45.60309748,-99999.0,'11111222,11111222,99999999' 
TABS,ioos:station:wmo:42043:1,1997-01-02T21:00:00Z,28.9818,-94.9186,2.0,69.3589068,46.494647,-99999.0,'11111222,11111222,99999999' 
TABS,ioos:station:wmo:42043:1,1997-01-02T21:30:00Z,28.9818,-94.9186,2.0,69.1599127,42.72522557,-99999.0,'11111222,11111222,99999999' 
TABS,ioos:station:wmo:42043:1,1997-01-02T22:00:00Z,28.9818,-94.9186,2.0,68.43965938,39.72986912,-99999.0,'11111222,11111222,99999999' 
TABS,ioos:station:wmo:42043:1,1997-01-02T22:30:00Z,28.9818,-94.9186,2.0,65.85023171,37.88581397,-99999.0,'11111222,11111222,99999999' 
TABS,ioos:station:wmo:42043:1,1997-01-02T23:00:00Z,28.9818,-94.9186,2.0,62.79897465,35.85532318,-99999.0,'11111222,11111222,99999999' 
TABS,ioos:station:wmo:42043:1,1997-01-02T23:30:00Z,28.9818,-94.9186,2.0,62.56173647,34.91802114,-99999.0,'11111222,11111222,99999999' 
TABS,ioos:station:wmo:42043:1,1997-01-03T00:00:00Z,28.9818,-94.9186,2.0,61.55262205,32.53893207,-99999.0,'11111222,11111222,99999999' 
TABS,ioos:station:wmo:42043:1,1997-01-03T00:30:00Z,28.9818,-94.9186,2.0,62.73382037,32.5238082,-99999.0,'11111222,11111222,99999999' 
TABS,ioos:station:wmo:42043:1,1997-01-03T01:00:00Z,28.9818,-94.9186,2.0,61.29893395,32.27547211,-99999.0,'11111222,11111222,99999999' 
TABS,ioos:station:wmo:42043:1,1997-01-03T01:30:00Z,28.9818,-94.9186,2.0,61.10554518,32.6780691,-99999.0,'11111222,11111222,99999999' 
TABS,ioos:station:wmo:42043:1,1997-01-03T02:00:00Z,28.9818,-94.9186,2.0,59.59574741,31.79220816,-99999.0,'11111222,11111222,99999999' 
TABS,ioos:station:wmo:42043:1,1997-01-03T02:30:00Z,28.9818,-94.9186,2.0,57.40177205,30.42250811,-99999.0,'11111222,11111222,99999999' 
TABS,ioos:station:wmo:42043:1,1997-01-03T03:00:00Z,28.9818,-94.9186,2.0,56.45987776,30.74991057,-99999.0,'11111222,11111222,99999999' 
TABS,ioos:station:wmo:42043:1,1997-01-03T03:30:00Z,28.9818,-94.9186,2.0,55.37998579,30.41544509,-99999.0,'11111222,11111222,99999999' 
TABS,ioos:station:wmo:42043:1,1997-01-03T04:00:00Z,28.9818,-94.9186,2.0,55.83198955,30.25162806,-99999.0,'11111222,11111222,99999999' 
TABS,ioos:station:wmo:42043:1,1997-01-03T04:30:00Z,28.9818,-94.9186,2.0,54.40407317,29.68733737,-99999.0,'11111222,11111222,99999999' 
TABS,ioos:station:wmo:42043:1,1997-01-03T05:00:00Z,28.9818,-94.9186,2.0,53.35590892,30.46023637,-99999.0,'11111222,11111222,99999999' 
TABS,ioos:station:wmo:42043:1,1997-01-03T05:30:00Z,28.9818,-94.9186,2.0,55.51024417,30.00388308,-99999.0,'11111222,11111222,99999999' 
TABS,ioos:station:wmo:42043:1,1997-01-03T06:00:00Z,28.9818,-94.9186,2.0,54.10035891,32.01058887,-99999.0,'11111222,11111222,99999999' 
TABS,ioos:station:wmo:42043:1,1997-01-03T06:30:00Z,28.9818,-94.9186,2.0,55.56864935,32.15311493,-99999.0,'11111222,11111222,99999999' 
TABS,ioos:station:wmo:42043:1,1997-01-03T07:00:00Z,28.9818,-94.9186,2.0,55.72893944,32.81775129,-99999.0,'11111222,11111222,99999999' 
TABS,ioos:station:wmo:42043:1,1997-01-03T07:30:00Z,28.9818,-94.9186,2.0,53.3289525,33.43820121,-99999.0,'11111222,11111222,99999999' 
TABS,ioos:station:wmo:42043:1,1997-01-03T08:00:00Z,28.9818,-94.9186,2.0,51.81234261,33.74092471,-99999.0,'11111222,11111222,99999999' 
TABS,ioos:station:wmo:42043:1,1997-01-03T08:30:00Z,28.9818,-94.9186,2.0,50.45718221,33.23616253,-99999.0,'11111222,11111222,99999999' 
TABS,ioos:station:wmo:42043:1,1997-01-03T09:00:00Z,28.9818,-94.9186,2.0,51.17200092,31.3723206,-99999.0,'11111222,11111222,99999999' 
TABS,ioos:station:wmo:42043:1,1997-01-03T09:30:00Z,28.9818,-94.9186,2.0,52.42673032,29.32221001,-99999.0,'11111222,11111222,99999999' 
TABS,ioos:station:wmo:42043:1,1997-01-03T10:00:00Z,28.9818,-94.9186,2.0,51.24785499,29.04367229,-99999.0,'11111222,11111222,99999999' 
TABS,ioos:station:wmo:42043:1,1997-01-03T10:30:00Z,28.9818,-94.9186,2.0,49.73024075,28.12550444,-99999.0,'11111222,11111222,99999999' 
TABS,ioos:station:wmo:42043:1,1997-01-03T11:00:00Z,28.9818,-94.9186,2.0,45.87389074,27.82081595,-99999.0,'11111222,11111222,99999999' 
TABS,ioos:station:wmo:42043:1,1997-01-03T11:30:00Z,28.9818,-94.9186,2.0,42.81386194,27.61848113,-99999.0,'11111222,11111222,99999999' 
TABS,ioos:station:wmo:42043:1,1997-01-03T12:00:00Z,28.9818,-94.9186,2.0,40.85508941,29.15248531,-99999.0,'11111222,11111222,99999999' 
TABS,ioos:station:wmo:42043:1,1997-01-03T12:30:00Z,28.9818,-94.9186,2.0,37.57348014,29.32221001,-99999.0,'11111222,11111222,99999999' 
TABS,ioos:station:wmo:42043:1,1997-01-03T13:00:00Z,28.9818,-94.9186,2.0,35.93593652,29.44391278,-99999.0,'11111222,11111222,99999999' 
TABS,ioos:station:wmo:42043:1,1997-01-03T13:30:00Z,28.9818,-94.9186,2.0,38.76214764,27.13679605,-99999.0,'11111222,11111222,99999999' 
TABS,ioos:station:wmo:42043:1,1997-01-03T14:00:00Z,28.9818,-94.9186,2.0,36.34529602,26.64311731,-99999.0,'11111222,11111222,99999999' 
TABS,ioos:station:wmo:42043:1,1997-01-03T14:30:00Z,28.9818,-94.9186,2.0,32.94016704,25.2132842,-99999.0,'11111222,11111222,99999999' 
TABS,ioos:station:wmo:42043:1,1997-01-03T15:00:00Z,28.9818,-94.9186,2.0,27.73632727,26.2569229,-99999.0,'11111222,11111222,99999999' 
TABS,ioos:station:wmo:42043:1,1997-01-03T15:30:00Z,28.9818,-94.9186,2.0,29.05021266,24.54827896,-99999.0,'11111222,11111222,99999999' 
TABS,ioos:station:wmo:42043:1,1997-01-03T16:00:00Z,28.9818,-94.9186,2.0,29.75488319,21.62049491,-99999.0,'11111222,11111222,99999999' 
TABS,ioos:station:wmo:42043:1,1997-01-03T16:30:00Z,28.9818,-94.9186,2.0,25.61974251,24.12151322,-99999.0,'11111222,11111222,99999999' 
TABS,ioos:station:wmo:42043:1,1997-01-03T17:00:00Z,28.9818,-94.9186,2.0,24.82861261,26.2679748,-99999.0,'11111222,11111222,99999999' 
TABS,ioos:station:wmo:42043:1,1997-01-03T17:30:00Z,28.9818,-94.9186,2.0,23.89711879,25.74716489,-99999.0,'11111222,11111222,99999999' 
TABS,ioos:station:wmo:42043:1,1997-01-03T18:00:00Z,28.9818,-94.9186,2.0,17.52573785,29.68803968,-99999.0,'11111222,11111222,99999999' 
TABS,ioos:station:wmo:42043:1,1997-01-03T18:30:00Z,28.9818,-94.9186,2.0,15.69129167,27.54655877,-99999.0,'11111222,11111222,99999999' 
TABS,ioos:station:wmo:42043:1,1997-01-03T19:00:00Z,28.9818,-94.9186,2.0,13.65956508,32.81820531,-99999.0,'11111222,11111222,99999999' 
TABS,ioos:station:wmo:42043:1,1997-01-03T19:30:00Z,28.9818,-94.9186,2.0,15.00681132,29.93076344,-99999.0,'11111222,11111222,99999999' 
TABS,ioos:station:wmo:42043:1,1997-01-03T20:00:00Z,28.9818,-94.9186,2.0,15.20315053,31.80301401,-99999.0,'11111222,11111222,99999999' 
TABS,ioos:station:wmo:42043:1,1997-01-03T20:30:00Z,28.9818,-94.9186,2.0,15.31007924,29.35163709,-99999.0,'11111222,11111222,99999999' 
TABS,ioos:station:wmo:42043:1,1997-01-03T21:00:00Z,28.9818,-94.9186,2.0,12.69210379,33.90853727,-99999.0,'11111222,11111222,99999999' 
TABS,ioos:station:wmo:42043:1,1997-01-03T21:30:00Z,28.9818,-94.9186,2.0,14.65615116,32.96251962,-99999.0,'11111222,11111222,99999999' 
TABS,ioos:station:wmo:42043:1,1997-01-03T22:00:00Z,28.9818,-94.9186,2.0,19.7686246,32.611915,-99999.0,'11111222,11111222,99999999' 
TABS,ioos:station:wmo:42043:1,1997-01-03T22:30:00Z,28.9818,-94.9186,2.0,17.92084838,31.00421907,-99999.0,'11111222,11111222,99999999' 
TABS,ioos:station:wmo:42043:1,1997-01-03T23:00:00Z,28.9818,-94.9186,2.0,15.8733713,29.4322714,-99999.0,'11111222,11111222,99999999' 
TABS,ioos:station:wmo:42043:1,1997-01-03T23:30:00Z,28.9818,-94.9186,2.0,18.25697011,29.4947063,-99999.0,'11111222,11111222,99999999' 
TABS,ioos:station:wmo:42043:1,1997-01-04T00:00:00Z,28.9818,-94.9186,2.0,16.51301987,33.5643263,-99999.0,'11111222,11111222,99999999' 
TABS,ioos:station:wmo:42043:1,1997-01-04T00:30:00Z,28.9818,-94.9186,2.0,19.4977939,30.35043657,-99999.0,'11111222,11111222,99999999' 
TABS,ioos:station:wmo:42043:1,1997-01-04T01:00:00Z,28.9818,-94.9186,2.0,26.56519952,26.65393029,-99999.0,'11111222,11111222,99999999' 
TABS,ioos:station:wmo:42043:1,1997-01-04T01:30:00Z,28.9818,-94.9186,2.0,25.02406209,29.59835806,-99999.0,'11111222,11111222,99999999' 
TABS,ioos:station:wmo:42043:1,1997-01-04T02:00:00Z,28.9818,-94.9186,2.0,33.85277937,28.34529414,-99999.0,'11111222,11111222,99999999' 
TABS,ioos:station:wmo:42043:1,1997-01-04T02:30:00Z,28.9818,-94.9186,2.0,34.2193384,27.0289197,-99999.0,'11111222,11111222,99999999' 
TABS,ioos:station:wmo:42043:1,1997-01-04T03:00:00Z,28.9818,-94.9186,2.0,32.13829082,27.4455388,-99999.0,'11111222,11111222,99999999' 
TABS,ioos:station:wmo:42043:1,1997-01-04T03:30:00Z,28.9818,-94.9186,2.0,31.16401025,29.95241059,-99999.0,'11111222,11111222,99999999' 
TABS,ioos:station:wmo:42043:1,1997-01-04T04:00:00Z,28.9818,-94.9186,2.0,30.96722089,29.54063134,-99999.0,'11111222,11111222,99999999' 
TABS,ioos:station:wmo:42043:1,1997-01-04T04:30:00Z,28.9818,-94.9186,2.0,23.00144845,34.31845276,-99999.0,'11111222,11111222,99999999' 
TABS,ioos:station:wmo:42043:1,1997-01-04T05:00:00Z,28.9818,-94.9186,2.0,26.55794415,35.31645792,-99999.0,'11111222,11111222,99999999' 
TABS,ioos:station:wmo:42043:1,1997-01-04T05:30:00Z,28.9818,-94.9186,2.0,26.3610904,38.91677402,-99999.0,'11111222,11111222,99999999' 
TABS,ioos:station:wmo:42043:1,1997-01-04T06:00:00Z,28.9818,-94.9186,2.0,25.73538699,37.05553265,-99999.0,'11111222,11111222,99999999' 
TABS,ioos:station:wmo:42043:1,1997-01-04T06:30:00Z,28.9818,-94.9186,2.0,25.92663672,36.11474076,-99999.0,'11111222,11111222,99999999' 
TABS,ioos:station:wmo:42043:1,1997-01-04T07:00:00Z,28.9818,-94.9186,2.0,24.00310854,38.81669357,-99999.0,'11111222,11111222,99999999' 
TABS,ioos:station:wmo:42043:1,1997-01-04T07:30:00Z,28.9818,-94.9186,2.0,22.7575142,40.06934614,-99999.0,'11111222,11111222,99999999' 
TABS,ioos:station:wmo:42043:1,1997-01-04T08:00:00Z,28.9818,-94.9186,2.0,23.36190779,40.57647841,-99999.0,'11111222,11111222,99999999' 
TABS,ioos:station:wmo:42043:1,1997-01-04T08:30:00Z,28.9818,-94.9186,2.0,23.64940579,44.57334742,-99999.0,'11111222,11111222,99999999' 
TABS,ioos:station:wmo:42043:1,1997-01-04T09:00:00Z,28.9818,-94.9186,2.0,18.08188982,45.13920912,-99999.0,'11111222,11111222,99999999' 
TABS,ioos:station:wmo:42043:1,1997-01-04T09:30:00Z,28.9818,-94.9186,2.0,18.56131783,43.07032621,-99999.0,'11111222,11111222,99999999' 
TABS,ioos:station:wmo:42043:1,1997-01-04T10:00:00Z,28.9818,-94.9186,2.0,16.01051224,39.99118028,-99999.0,'11111222,11111222,99999999' 
TABS,ioos:station:wmo:42043:1,1997-01-04T10:30:00Z,28.9818,-94.9186,2.0,18.17644684,42.0270984,-99999.0,'11111222,11111222,99999999' 
TABS,ioos:station:wmo:42043:1,1997-01-04T11:00:00Z,28.9818,-94.9186,2.0,18.43064449,40.51826378,-99999.0,'11111222,11111222,99999999' 
TABS,ioos:station:wmo:42043:1,1997-01-04T11:30:00Z,28.9818,-94.9186,2.0,12.9995969,35.78714015,-99999.0,'11111222,11111222,99999999' 
TABS,ioos:station:wmo:42043:1,1997-01-04T12:00:00Z,28.9818,-94.9186,2.0,5.147773679,33.2139549,-99999.0,'11111222,11111222,99999999' 
TABS,ioos:station:wmo:42043:1,1997-01-04T12:30:00Z,28.9818,-94.9186,2.0,13.11472478,31.5118803,-99999.0,'11111222,11111222,99999999' 
TABS,ioos:station:wmo:42043:1,1997-01-04T13:00:00Z,28.9818,-94.9186,2.0,11.49979316,34.35973516,-99999.0,'11111222,11111222,99999999' 
TABS,ioos:station:wmo:42043:1,1997-01-04T13:30:00Z,28.9818,-94.9186,2.0,9.370947461,32.91929525,-99999.0,'11111222,11111222,99999999' 
TABS,ioos:station:wmo:42043:1,1997-01-04T14:00:00Z,28.9818,-94.9186,2.0,10.93012146,34.5976083,-99999.0,'11111222,11111222,99999999' 
TABS,ioos:station:wmo:42043:1,1997-01-04T14:30:00Z,28.9818,-94.9186,2.0,10.74487485,35.18690808,-99999.0,'11111222,11111222,99999999' 
TABS,ioos:station:wmo:42043:1,1997-01-04T15:00:00Z,28.9818,-94.9186,2.0,6.733355466,33.00765517,-99999.0,'11111222,11111222,99999999' 
TABS,ioos:station:wmo:42043:1,1997-01-04T15:30:00Z,28.9818,-94.9186,2.0,13.21926445,35.20277546,-99999.0,'11111222,11111222,99999999' 
TABS,ioos:station:wmo:42043:1,1997-01-04T16:00:00Z,28.9818,-94.9186,2.0,8.320615012,37.03987176,-99999.0,'11111222,11111222,99999999' 